TimeCDT,TemperatureF,Dew PointF,Humidity,Sea Level PressureIn,VisibilityMPH,Wind Direction,Wind SpeedMPH,Gust SpeedMPH,PrecipitationIn,Events,Conditions,WindDirDegrees,DateUTC
12:22 AM,69.8,66.2,88,29.97,10.0,SSE,17.3,34.5,N/A,,Scattered Clouds,150,2012-03-17 05:22:00
12:50 AM,69.8,64.4,83,30.02,10.0,SE,5.8,-,N/A,,Scattered Clouds,130,2012-03-17 05:50:00
12:53 AM,70.0,64.9,84,29.99,10.0,SE,12.7,18.4,N/A,,Scattered Clouds,130,2012-03-17 05:53:00
1:08 AM,69.8,64.4,83,30.03,10.0,SSE,4.6,-,N/A,,Mostly Cloudy,160,2012-03-17 06:08:00
1:53 AM,69.1,64.9,87,30.00,10.0,SE,4.6,-,N/A,,Overcast,130,2012-03-17 06:53:00
2:24 AM,69.8,66.2,88,30.03,10.0,SE,6.9,-,N/A,,Overcast,140,2012-03-17 07:24:00
2:39 AM,69.8,64.4,83,30.03,10.0,SE,5.8,-,N/A,,Overcast,140,2012-03-17 07:39:00
2:53 AM,69.1,64.9,87,30.00,10.0,SSE,5.8,-,N/A,,Overcast,150,2012-03-17 07:53:00
3:53 AM,69.1,64.9,87,29.99,10.0,SSE,5.8,-,N/A,,Overcast,160,2012-03-17 08:53:00
4:53 AM,68.0,64.9,90,29.96,10.0,SE,6.9,-,N/A,,Overcast,130,2012-03-17 09:53:00
5:28 AM,66.2,64.4,94,29.97,10.0,SE,9.2,-,N/A,,Mostly Cloudy,130,2012-03-17 10:28:00
5:53 AM,66.0,64.9,96,29.95,10.0,SE,6.9,-,N/A,,Clear,130,2012-03-17 10:53:00
6:53 AM,66.0,64.0,93,29.97,10.0,East,3.5,-,N/A,,Scattered Clouds,90,2012-03-17 11:53:00
7:01 AM,66.2,64.4,94,29.99,9.0,East,3.5,-,N/A,,Mostly Cloudy,80,2012-03-17 12:01:00
7:53 AM,64.9,64.0,97,29.98,7.0,East,5.8,-,N/A,,Mostly Cloudy,80,2012-03-17 12:53:00
8:48 AM,66.2,66.2,100,30.02,7.0,SE,6.9,-,N/A,,Overcast,130,2012-03-17 13:48:00
8:53 AM,66.9,66.0,97,30.00,7.0,ESE,5.8,-,N/A,,Overcast,120,2012-03-17 13:53:00
9:53 AM,69.1,66.0,90,30.01,10.0,SE,10.4,-,N/A,,Mostly Cloudy,130,2012-03-17 14:53:00
10:53 AM,71.1,66.0,84,30.04,10.0,SE,8.1,-,N/A,,Overcast,130,2012-03-17 15:53:00
11:53 AM,73.9,64.9,73,30.03,10.0,SSE,10.4,-,N/A,,Overcast,160,2012-03-17 16:53:00
12:53 PM,77.0,66.0,69,30.00,10.0,SSE,16.1,23.0,N/A,,Mostly Cloudy,160,2012-03-17 17:53:00
1:53 PM,75.9,66.0,71,29.97,10.0,ESE,13.8,-,N/A,,Scattered Clouds,120,2012-03-17 18:53:00
2:53 PM,77.0,64.9,66,29.94,10.0,SSE,12.7,-,N/A,,Mostly Cloudy,150,2012-03-17 19:53:00
3:53 PM,77.0,64.9,66,29.92,10.0,SE,9.2,-,N/A,,Mostly Cloudy,130,2012-03-17 20:53:00
4:53 PM,77.0,66.0,69,29.91,10.0,ESE,8.1,-,N/A,,Mostly Cloudy,120,2012-03-17 21:53:00
5:53 PM,78.1,66.0,66,29.89,10.0,ESE,13.8,-,N/A,,Scattered Clouds,120,2012-03-17 22:53:00
6:53 PM,75.9,64.9,69,29.90,10.0,SE,17.3,20.7,N/A,,Overcast,130,2012-03-17 23:53:00
7:53 PM,73.0,64.0,73,29.93,10.0,SE,12.7,-,N/A,,Scattered Clouds,130,2012-03-18 00:53:00
8:53 PM,71.1,64.0,78,29.95,10.0,ESE,11.5,-,N/A,,Clear,120,2012-03-18 01:53:00
9:53 PM,70.0,64.9,84,29.98,10.0,SE,11.5,-,N/A,,Partly Cloudy,130,2012-03-18 02:53:00
10:53 PM,68.0,64.9,90,29.99,10.0,SE,11.5,-,N/A,,Scattered Clouds,130,2012-03-18 03:53:00
11:53 PM,66.9,64.9,93,29.99,10.0,SE,8.1,-,N/A,,Clear,130,2012-03-18 04:53:00